Torna al catalogo

CZ-6A DEB

AttivoSSO
NORAD 54291·DEBRIS·🇨🇳 China

Lanciato Nov 11, 2022 da Taiyuan Satellite Launch Center

Loading…

Prossimi Passaggi (prossime 24 ore)

TLE

AggiornatoSource: Space-Track

Epoca: Sep 13, 2026, 22:45 UTC

1 54291U 22151AJ  26256.94852370 -.00000024  00000-0  11327-4 0  9996
2 54291  98.8721 246.4171 0081615  68.3172 292.6662 14.05792963196365

Traccia CZ-6A DEB in tempo reale con AllMySat

Download on the App Store